sat.trackr.live / text

‹ back to catalog

STARLINK-36290

NORAD 68516 · 2026-068J

PAYLOAD ACTIVE UNKNOWN

§ Identity

Operator
Country
US
Launch date
2026-03-30
Launch site
AFETR
Launch vehicle
Mass (kg)
RCS (m²)

Purposes: comms

External: N2YO · Heavens-Above · Gunter

§ Orbital elements

Epoch: 2026-05-24T06:12:54.464544Z

Period
93.85 min
Inclination
53.1592°
Eccentricity
0.0000962
Mean motion
15.34393360 rev/d
Perigee alt
462.1 km
Apogee alt
463.4 km
Semi-major
6,840.9 km
B*
4.9254e-4
RAAN
136.9194°
Arg perigee
76.9774°
Mean anomaly
283.1336°
Rev number
853

§ Raw data

STARLINK-362901 68516U 26068J   26144.25896371  .00016298  00000+0  49254-3 0  99982 68516  53.1592 136.9194 0000962  76.9774 283.1336 15.34393360  8532

JSON: /api/v1/satellites/68516 · /tle

For live sub-satellite position, see the globe view (requires WebGL).

§ Visibility from observer

Set your observer location to see the next 7 days of passes ≥ 10°. The values pass through the URL so the page stays shareable.

No JS? Fill the form by hand. The geolocation button needs JavaScript.